Portada
METAR-TAF:

METAR-TAF

Aeroports :

Pekanbaru, Indonèsia

latitud: 00-28N, longitud: 101-27E, altitud: 31 m

Observació

L'informe es va fer fa 12 hores i 51 minuts, a les 12:00 UTC
Vent calma
Temperatura 28°C
Humitat 79%
Pressió 1008 hPa
Visibilitat: 8000 m
Escasses núvols a una alçada de 1300 ft

METAR: WIBB 031200Z 00000KT 8000 FEW013 28/24 Q1008

Hora: 07:51 (00:51 UTC)


TAF: manca

Observacions i pronòstics meteorològics de més de 4000 aeroports (METAR i TAF).

Les estacions disponibles són els punts grocs i vermells al mapa.

Posi el ratolí al punt desitjat per veure el nom de l'estació.

Feu clic per veure les observacions i els pronòstics meteorològics.

Per canviar el mapa: feu clic els botons verds amb una creu de color negre per apropar; al botó verd amb un guió per allunyar la imatge; o en les fletxes verdes per a mapes adjacents.


METAR-TAF: